Weather reports worldwide

Advertisment
Venezia/Tessera, Italy (16105): temperature & dewpoint: 17.10.2019 21:00:00 - 23.10.2019 21:00:00 (CEST)Venezia/Tessera, Italy (16105): wind speed: 17.10.2019 21:00:00 - 23.10.2019 21:00:00 (CEST)Venezia/Tessera, Italy (16105): wind direction: 17.10.2019 21:00:00 - 23.10.2019 21:00:00 (CEST)Venezia/Tessera, Italy (16105): reduced air pressure: 17.10.2019 21:00:00 - 23.10.2019 21:00:00 (CEST)Venezia/Tessera, Italy (16105): visibility: 17.10.2019 21:00:00 - 23.10.2019 21:00:00 (CEST)Venezia/Tessera, Italy (16105): precipitation: 17.10.2019 21:00:00 - 23.10.2019 21:00:00 (CEST)
Date & Time tt [°C] td [°C] ff [km/h] ff [kn] dd ppp [hPa] vv [km] rr [mm]
23.10.2019 21:00:00 18,0 17,0 4 2 SSW - 7 -
23.10.2019 20:00:00 18,8 17,1 4 2 S 1018,6 8 -
23.10.2019 19:00:00 19,0 17,0 4 2 S - 8 -
23.10.2019 18:00:00 20,0 17,0 4 2 S - 8 -
23.10.2019 17:00:00 20,7 17,0 5 3 SSE 1018,2 10 0,0
23.10.2019 16:00:00 21,0 17,0 8 4 SSE - 10 -
23.10.2019 15:00:00 22,0 17,0 9 5 SSE - 10 -
23.10.2019 14:00:00 21,5 16,1 8 4 SSE 1019,6 10 -
23.10.2019 13:00:00 20,0 16,0 8 4 SSE - 10 -
23.10.2019 12:00:00 20,0 16,0 8 4 E - 10 -
23.10.2019 11:00:00 20,0 15,7 2 1 - 1020,6 9 0,0
23.10.2019 10:00:00 17,0 15,0 4 2 - - 8 -
23.10.2019 09:00:00 14,0 14,0 0 0 N - 10 -
23.10.2019 08:00:00 13,9 13,3 5 3 NNW 1020,4 10 -
23.10.2019 07:00:00 14,0 14,0 9 5 NW - 10 -
23.10.2019 06:00:00 13,0 13,0 4 2 WNW - 5 -
23.10.2019 05:00:00 13,7 13,3 4 2 - 1020,3 0,6 0,0
23.10.2019 04:00:00 15,0 15,0 0 0 N - 1,0 -
23.10.2019 03:00:00 15,0 15,0 8 4 NW - 6 -
23.10.2019 02:00:00 15,7 15,0 5 3 NW 1021,3 6 -
23.10.2019 01:00:00 16,0 15,0 5 3 - - 8 -
23.10.2019 00:00:00 18,0 16,0 8 4 W - 10 -
22.10.2019 23:00:00 18,3 15,8 8 4 W 1021,9 10 0,0
22.10.2019 22:00:00 18,0 16,0 8 4 WSW - 10 -
22.10.2019 21:00:00 19,0 16,0 5 3 W - 10 -
22.10.2019 20:00:00 18,8 16,0 9 5 W 1022,1 10 -
22.10.2019 19:00:00 19,0 17,0 9 5 SW - 10 -
22.10.2019 18:00:00 21,0 18,0 8 4 SW - 10 -
22.10.2019 17:00:00 22,6 16,2 4 2 - 1021,5 10 0,0
22.10.2019 16:00:00 22,0 16,0 5 3 SSE - 10 -
22.10.2019 15:00:00 22,0 16,0 8 4 SSE - 10 -
22.10.2019 14:00:00 21,5 16,0 5 3 S 1022,8 10 -
22.10.2019 13:00:00 21,0 16,0 5 3 SSE - 10 -
22.10.2019 12:00:00 20,0 16,0 5 3 SSE - 10 -
22.10.2019 11:00:00 19,4 15,9 5 3 N 1024,1 9 0,0
22.10.2019 10:00:00 17,0 15,0 8 4 N - 7 -
22.10.2019 09:00:00 15,0 14,0 8 4 NNE - 4,5 -
22.10.2019 08:00:00 14,0 13,5 5 3 NE 1022,6 4,0 -
22.10.2019 07:00:00 14,0 14,0 8 4 N - 1,8 -
22.10.2019 06:00:00 14,0 14,0 8 4 N - 0,4 -
22.10.2019 05:00:00 14,7 14,2 5 3 N 1022,9 1,3 0,0
22.10.2019 04:00:00 15,0 14,0 2 1 - - 4,0 -
22.10.2019 03:00:00 16,0 15,0 5 3 NNE - 5 -
22.10.2019 02:00:00 15,8 15,1 8 4 N 1023,4 7 -
22.10.2019 01:00:00 17,0 15,0 8 4 N - 6 -
22.10.2019 00:00:00 17,0 16,0 9 5 NNE - 7 -
21.10.2019 23:00:00 17,0 15,8 9 5 NNE 1023,5 8 0,0
21.10.2019 22:00:00 17,0 16,0 8 4 NNE - 8 -
21.10.2019 21:00:00 18,0 16,0 11 6 NE - 8 -
21.10.2019 20:00:00 18,4 17,2 8 4 NE 1023,1 10 -
21.10.2019 19:00:00 19,0 18,0 5 3 E - 10 -
21.10.2019 18:00:00 20,0 18,0 8 4 E - 10 -
21.10.2019 17:00:00 20,9 17,4 11 6 E 1022,6 10 0,0
21.10.2019 16:00:00 22,0 17,0 9 5 ESE - 10 -
21.10.2019 15:00:00 21,0 17,0 11 6 SE - 10 -
21.10.2019 14:00:00 21,3 17,8 11 6 ESE 1022,9 10 -
21.10.2019 13:00:00 22,0 18,0 13 7 ESE - 10 -
21.10.2019 12:00:00 21,0 18,0 13 7 ESE - 10 -
21.10.2019 11:00:00 19,8 17,8 15 8 ENE 1022,8 8 0,0
21.10.2019 10:00:00 19,0 17,0 16 9 ENE - 7 -
21.10.2019 09:00:00 18,0 17,0 15 8 NE - 7 -
21.10.2019 08:00:00 18,1 16,9 16 9 NE 1021,0 4,0 -
21.10.2019 07:00:00 18,0 17,0 15 8 ENE - 6 -
21.10.2019 06:00:00 18,0 17,0 16 9 NE - 7 -
21.10.2019 05:00:00 17,5 16,5 13 7 NE 1019,8 6 0,0
21.10.2019 04:00:00 18,0 16,0 15 8 NE - 7 -
21.10.2019 03:00:00 18,0 16,0 15 8 NE - 8 -
21.10.2019 02:00:00 17,5 16,1 13 7 NE 1020,5 8 -
21.10.2019 01:00:00 18,0 16,0 15 8 NE - 10 -
21.10.2019 00:00:00 18,0 16,0 13 7 NE - 10 -
20.10.2019 23:00:00 17,7 15,6 11 6 NNE 1020,5 10 0,0
20.10.2019 22:00:00 18,0 16,0 9 5 NNE - 10 -
20.10.2019 21:00:00 18,0 16,0 8 4 E - 10 -
20.10.2019 20:00:00 18,2 15,7 8 4 SE 1019,2 10 -
20.10.2019 19:00:00 19,0 16,0 9 5 SE - 10 -
20.10.2019 18:00:00 19,0 16,0 9 5 ESE - 10 -
20.10.2019 17:00:00 20,1 15,4 13 7 ESE 1018,4 10 0,0
20.10.2019 16:00:00 21,0 16,0 15 8 SE - 10 -
20.10.2019 15:00:00 21,0 17,0 13 7 SE - 10 -
20.10.2019 14:00:00 21,9 15,1 11 6 SE 1018,8 10 -
20.10.2019 13:00:00 21,0 17,0 9 5 E - 10 -
20.10.2019 12:00:00 20,0 17,0 8 4 ENE - 10 -
20.10.2019 11:00:00 16,8 16,5 9 5 NNE 1019,3 0,9 0,0
20.10.2019 10:00:00 16,0 16,0 5 3 NE - 0,4 -
20.10.2019 09:00:00 16,0 15,0 5 3 ENE - 0,4 -
20.10.2019 08:00:00 15,7 15,3 5 3 NE 1018,0 0,3 -
20.10.2019 07:00:00 15,0 15,0 9 5 NNE - 0,9 -
20.10.2019 06:00:00 15,0 14,0 8 4 NE - 5 -
20.10.2019 05:00:00 15,2 14,7 11 6 NNE 1017,0 5 0,0
20.10.2019 04:00:00 15,0 15,0 9 5 NE - 5 -
20.10.2019 03:00:00 - - - - - - - -
20.10.2019 02:00:00 16,2 15,4 11 6 NNE 1017,2 8 -
20.10.2019 01:00:00 17,0 16,0 11 6 NE - 8 -
20.10.2019 00:00:00 17,0 16,0 11 6 NE - 10 -
19.10.2019 23:00:00 16,5 15,3 11 6 NE 1017,3 10 0,0
19.10.2019 22:00:00 17,0 16,0 11 6 NE - 10 -
19.10.2019 21:00:00 17,0 16,0 8 4 ENE - 10 -
19.10.2019 20:00:00 17,3 15,6 8 4 ENE 1016,6 10 -
19.10.2019 19:00:00 18,0 16,0 8 4 E - 10 -
19.10.2019 18:00:00 19,0 16,0 9 5 ESE - 10 -
19.10.2019 17:00:00 19,6 16,8 5 3 ESE 1016,1 10 0,0
19.10.2019 16:00:00 20,0 16,0 8 4 ESE - 10 -
19.10.2019 15:00:00 20,0 15,0 9 5 SE - 10 -
19.10.2019 14:00:00 20,8 14,5 9 5 E 1016,2 10 -
19.10.2019 13:00:00 21,0 14,0 8 4 E - 10 -
19.10.2019 12:00:00 19,0 16,0 9 5 E - 10 -
19.10.2019 11:00:00 19,3 15,9 9 5 ENE 1016,8 6 0,0
19.10.2019 10:00:00 16,0 15,0 9 5 ENE - 5 -
19.10.2019 09:00:00 15,0 14,0 11 6 NE - 5 -
19.10.2019 08:00:00 14,5 13,3 11 6 NNE 1015,9 5 -
19.10.2019 07:00:00 14,0 13,0 9 5 NNE - 7 -
19.10.2019 06:00:00 14,0 13,0 8 4 NNE - 10 -
19.10.2019 05:00:00 14,2 13,0 5 3 ENE 1016,2 10 0,0
19.10.2019 04:00:00 15,0 13,0 8 4 N - 10 -
19.10.2019 03:00:00 15,0 13,0 4 2 E - 10 -
19.10.2019 02:00:00 15,2 13,4 5 3 NE 1016,9 10 -
19.10.2019 01:00:00 16,0 14,0 4 2 NNW - 10 -
19.10.2019 00:00:00 17,0 14,0 5 3 W - 10 -
18.10.2019 23:00:00 17,3 14,3 4 2 - 1017,2 10 0,0
18.10.2019 22:00:00 17,0 13,0 4 2 SSW - 10 -
18.10.2019 21:00:00 17,0 13,0 9 5 W - 10 -
18.10.2019 20:00:00 17,8 13,8 5 3 SW 1016,9 10 -
18.10.2019 19:00:00 18,0 13,0 9 5 WSW - 10 -
18.10.2019 18:00:00 19,0 13,0 9 5 WSW - 10 -
18.10.2019 17:00:00 19,7 13,6 11 6 WSW 1016,7 10 0,0
18.10.2019 16:00:00 20,0 14,0 9 5 WSW - 8 -
18.10.2019 15:00:00 19,0 15,0 11 6 SSW - 7 -
18.10.2019 14:00:00 18,6 14,5 9 5 SSW 1017,5 6 -
18.10.2019 13:00:00 18,0 14,0 5 3 - - 6 -
18.10.2019 12:00:00 17,0 14,0 8 4 W - 6 -
18.10.2019 11:00:00 16,0 14,4 5 3 W 1018,2 4,0 0,0
18.10.2019 10:00:00 15,0 14,0 5 3 N - 2,0 -
18.10.2019 09:00:00 15,0 14,0 5 3 NNE - 1,8 -
18.10.2019 08:00:00 15,2 13,8 5 3 NW 1017,3 6 -
18.10.2019 07:00:00 15,0 14,0 2 1 - - 6 -
18.10.2019 06:00:00 15,0 14,0 2 1 - - 6 -
18.10.2019 05:00:00 15,9 14,0 4 2 NNW 1017,4 7 0,0
18.10.2019 04:00:00 16,0 14,0 4 2 - - 10 -
18.10.2019 03:00:00 17,0 14,0 9 5 WSW - 10 -
18.10.2019 02:00:00 17,5 14,7 11 6 SW 1018,3 10 -
18.10.2019 01:00:00 18,0 14,0 13 7 SW - 10 -
18.10.2019 00:00:00 18,0 13,0 11 6 WSW - 10 -
17.10.2019 23:00:00 18,1 14,8 11 6 SW 1018,6 10 0,0
17.10.2019 22:00:00 18,0 16,0 9 5 SSW - 7 -
17.10.2019 21:00:00 17,0 16,0 9 5 SSW - 7 -

tt = temperature
td = dewpoint
ff = wind speed
dd = wind direction
ppp = reduced air pressure
vv = visibility
rr = precipitation

Next stations